WZZ39FI LATI-LIRN

Flight info

Callsign WZZ39FI
Flight time 0h 53m
Altitude 35000
Route DIRES DCT PAPIZ DCT TOPNO DCT DOGUS L995 EKTOL
Aircraft A321/M-SDE3FGHIRWY/LB1

Departure

Time 2026-04-30 21:43
Airport Tirana International Airport Mother Teresa (LATI)

Arrival

Time 2026-04-30 22:36
Airport Naples International Airport (LIRN)
Time Latitude Longitude Altitude Speed Heading
2026-04-30 20:54 41.41910 19.71524 122 ft 0 kts 264°
2026-04-30 21:34 41.41911 19.71531 123 ft 4 kts 264°
2026-04-30 21:35 41.41914 19.71566 121 ft 4 kts 247°
2026-04-30 21:35 41.41925 19.71583 120 ft 2 kts 173°
2026-04-30 21:35 41.41926 19.71583 120 ft 0 kts 173°
2026-04-30 21:38 41.41905 19.71587 122 ft 7 kts 173°
2026-04-30 21:38 41.41821 19.71598 122 ft 17 kts 174°
2026-04-30 21:38 41.41683 19.71617 123 ft 21 kts 174°
2026-04-30 21:38 41.41537 19.71636 123 ft 21 kts 174°
2026-04-30 21:39 41.41391 19.71656 127 ft 21 kts 174°
2026-04-30 21:39 41.41244 19.71676 125 ft 21 kts 174°
2026-04-30 21:39 41.41096 19.71696 128 ft 22 kts 174°
2026-04-30 21:39 41.40944 19.71717 131 ft 23 kts 172°
2026-04-30 21:40 41.40779 19.71756 132 ft 25 kts 171°
2026-04-30 21:40 41.40603 19.71780 132 ft 24 kts 174°
2026-04-30 21:40 41.40449 19.71801 132 ft 22 kts 174°
2026-04-30 21:40 41.40325 19.71888 133 ft 19 kts 144°
2026-04-30 21:41 41.40247 19.71973 133 ft 10 kts 127°
2026-04-30 21:41 41.40241 19.72070 133 ft 11 kts 82°
2026-04-30 21:41 41.40250 19.72175 133 ft 11 kts 83°
2026-04-30 21:41 41.40260 19.72218 132 ft 2 kts 46°
2026-04-30 21:42 41.40278 19.72217 132 ft 5 kts 353°
2026-04-30 21:42 41.40413 19.72199 132 ft 52 kts 354°
2026-04-30 21:42 41.41022 19.72118 134 ft 121 kts 354°
2026-04-30 21:42 41.42034 19.71983 286 ft 158 kts 354°
2026-04-30 21:43 41.43101 19.71839 1089 ft 152 kts 355°
2026-04-30 21:43 41.43814 19.71739 1558 ft 154 kts 356°
2026-04-30 21:43 41.45288 19.71550 2128 ft 173 kts 358°
2026-04-30 21:43 41.46568 19.71389 2389 ft 196 kts 358°
2026-04-30 21:44 41.47998 19.71208 2625 ft 217 kts 358°
2026-04-30 21:44 41.49591 19.71004 2853 ft 243 kts 356°
2026-04-30 21:44 41.51329 19.70774 3401 ft 256 kts 358°
2026-04-30 21:44 41.53104 19.70533 4250 ft 257 kts 358°
2026-04-30 21:45 41.54899 19.70289 5090 ft 260 kts 358°
2026-04-30 21:45 41.56684 19.70049 5912 ft 261 kts 358°
2026-04-30 21:45 41.58496 19.69806 6731 ft 263 kts 356°
2026-04-30 21:45 41.60314 19.69476 7489 ft 267 kts 345°
2026-04-30 21:46 41.61971 19.68320 8189 ft 274 kts 320°
2026-04-30 21:46 41.63098 19.66265 9041 ft 278 kts 295°
2026-04-30 21:46 41.63420 19.63704 9837 ft 287 kts 267°
2026-04-30 21:46 41.62809 19.61157 10521 ft 295 kts 239°
2026-04-30 21:47 41.61339 19.59198 11120 ft 309 kts 217°
2026-04-30 21:47 41.59493 19.57530 11289 ft 332 kts 216°
2026-04-30 21:47 41.57489 19.55793 11413 ft 354 kts 215°
2026-04-30 21:47 41.55363 19.53984 11751 ft 367 kts 214°
2026-04-30 21:48 41.53193 19.52142 12409 ft 371 kts 214°
2026-04-30 21:48 41.51013 19.50282 13106 ft 373 kts 215°
2026-04-30 21:48 41.48822 19.48400 13785 ft 376 kts 215°
2026-04-30 21:48 41.46617 19.46495 14403 ft 379 kts 216°
2026-04-30 21:49 41.44423 19.44597 14979 ft 382 kts 216°
2026-04-30 21:49 41.42196 19.42623 15533 ft 385 kts 221°
2026-04-30 21:49 41.40339 19.40107 16099 ft 379 kts 240°
2026-04-30 21:49 41.39158 19.37011 16681 ft 373 kts 257°
2026-04-30 21:50 41.38684 19.33630 17246 ft 372 kts 266°
2026-04-30 21:50 41.38360 19.30188 17804 ft 376 kts 266°
2026-04-30 21:50 41.38032 19.26733 18455 ft 378 kts 266°
2026-04-30 21:50 41.37697 19.23258 19023 ft 379 kts 265°
2026-04-30 21:51 41.37355 19.19771 19564 ft 381 kts 265°
2026-04-30 21:51 41.37009 19.16264 20100 ft 384 kts 265°
2026-04-30 21:51 41.36660 19.12736 20633 ft 386 kts 265°
2026-04-30 21:51 41.36308 19.09191 21200 ft 386 kts 266°
2026-04-30 21:52 41.36076 19.06848 21626 ft 385 kts 265°
2026-04-30 21:52 41.35692 19.03300 22130 ft 388 kts 264°
2026-04-30 21:52 41.35112 18.98579 22765 ft 391 kts 263°
2026-04-30 21:52 41.34795 18.96157 23095 ft 393 kts 263°
2026-04-30 21:53 41.34323 18.92613 23571 ft 395 kts 263°
2026-04-30 21:53 41.33844 18.89006 24002 ft 397 kts 263°
2026-04-30 21:53 41.33372 18.85385 24401 ft 398 kts 263°
2026-04-30 21:53 41.32907 18.81748 24828 ft 399 kts 263°
2026-04-30 21:54 41.32445 18.78104 25262 ft 400 kts 264°
2026-04-30 21:54 41.31982 18.74443 25676 ft 401 kts 264°
2026-04-30 21:54 41.31518 18.70776 26105 ft 401 kts 264°
2026-04-30 21:54 41.31052 18.67102 26523 ft 402 kts 264°
2026-04-30 21:55 41.30588 18.63470 26925 ft 403 kts 264°
2026-04-30 21:55 41.30116 18.59796 27316 ft 404 kts 264°
2026-04-30 21:55 41.29637 18.56110 27718 ft 404 kts 264°
2026-04-30 21:55 41.29159 18.52420 28112 ft 405 kts 264°
2026-04-30 21:56 41.28683 18.48724 28509 ft 406 kts 264°
2026-04-30 21:56 41.28227 18.45016 28904 ft 406 kts 265°
2026-04-30 21:56 41.27856 18.41292 29299 ft 406 kts 267°
2026-04-30 21:56 41.27551 18.37573 29822 ft 402 kts 268°
2026-04-30 21:57 41.27274 18.33891 30352 ft 399 kts 268°
2026-04-30 21:57 41.26997 18.30234 30783 ft 397 kts 268°
2026-04-30 21:57 41.26714 18.26593 31159 ft 396 kts 268°
2026-04-30 21:57 41.26418 18.22951 31510 ft 396 kts 267°
2026-04-30 21:58 41.26113 18.19319 31852 ft 395 kts 267°
2026-04-30 21:58 41.25802 18.15692 32193 ft 395 kts 267°
2026-04-30 21:58 41.25483 18.12056 32531 ft 395 kts 267°
2026-04-30 21:58 41.25164 18.08424 32862 ft 395 kts 267°
2026-04-30 21:59 41.24849 18.04806 33189 ft 394 kts 267°
2026-04-30 21:59 41.24546 18.01237 33507 ft 394 kts 268°
2026-04-30 21:59 41.24325 17.97611 33827 ft 393 kts 270°
2026-04-30 22:00 41.24082 17.90361 34408 ft 392 kts 271°
2026-04-30 22:00 41.23892 17.83103 34885 ft 393 kts 271°
2026-04-30 22:00 41.23778 17.79520 35104 ft 394 kts 270°
2026-04-30 22:01 41.23513 17.72236 35183 ft 395 kts 270°
2026-04-30 22:01 41.23227 17.64948 35191 ft 395 kts 270°
2026-04-30 22:02 41.22937 17.57669 35190 ft 394 kts 270°
2026-04-30 22:02 41.22643 17.50386 35190 ft 394 kts 270°
2026-04-30 22:03 41.22343 17.43119 35190 ft 394 kts 270°
2026-04-30 22:03 41.22038 17.35837 35177 ft 395 kts 270°
2026-04-30 22:04 41.21737 17.28599 35182 ft 395 kts 270°
2026-04-30 22:05 41.21264 17.17632 35188 ft 396 kts 270°
2026-04-30 22:05 41.20937 17.10358 35195 ft 396 kts 270°
2026-04-30 22:06 41.20616 17.03036 35203 ft 396 kts 270°
2026-04-30 22:06 41.20122 16.92087 35206 ft 396 kts 270°
2026-04-30 22:07 41.19785 16.84842 35208 ft 395 kts 270°
2026-04-30 22:07 41.19440 16.77555 35208 ft 395 kts 270°
2026-04-30 22:08 41.19098 16.70271 35208 ft 395 kts 270°
2026-04-30 22:08 41.18754 16.62975 35175 ft 396 kts 270°
2026-04-30 22:09 41.18403 16.55695 35203 ft 395 kts 270°
2026-04-30 22:09 41.18225 16.52056 35036 ft 394 kts 270°
2026-04-30 22:09 41.18045 16.48437 34803 ft 392 kts 270°
2026-04-30 22:10 41.17866 16.44835 34571 ft 391 kts 270°
2026-04-30 22:10 41.17684 16.41241 34340 ft 390 kts 269°
2026-04-30 22:10 41.17502 16.37662 34096 ft 389 kts 269°
2026-04-30 22:10 41.17319 16.34082 33815 ft 388 kts 270°
2026-04-30 22:11 41.16953 16.26979 33282 ft 387 kts 270°
2026-04-30 22:11 41.16770 16.23414 33021 ft 387 kts 270°
2026-04-30 22:11 41.16589 16.19851 32773 ft 387 kts 270°
2026-04-30 22:12 41.16406 16.16281 32513 ft 387 kts 270°
2026-04-30 22:12 41.16219 16.12713 31892 ft 388 kts 270°
2026-04-30 22:12 41.16028 16.09133 31169 ft 389 kts 270°
2026-04-30 22:12 41.15834 16.05533 30366 ft 392 kts 270°
2026-04-30 22:13 41.15639 16.01919 29454 ft 394 kts 270°
2026-04-30 22:13 41.15444 15.98297 28768 ft 391 kts 270°
2026-04-30 22:13 41.15247 15.94738 28341 ft 383 kts 269°
2026-04-30 22:13 41.14880 15.91290 28207 ft 371 kts 266°
2026-04-30 22:14 41.14462 15.87976 28117 ft 361 kts 265°
2026-04-30 22:14 41.13588 15.81334 27945 ft 367 kts 265°
2026-04-30 22:14 41.13145 15.77997 27862 ft 367 kts 265°
2026-04-30 22:15 41.12704 15.74664 27770 ft 367 kts 265°
2026-04-30 22:15 41.12264 15.71328 27691 ft 367 kts 265°
2026-04-30 22:15 41.11827 15.68041 27576 ft 367 kts 265°
2026-04-30 22:15 41.11376 15.64674 27486 ft 365 kts 265°
2026-04-30 22:16 41.10939 15.61406 27396 ft 365 kts 265°
2026-04-30 22:16 41.10499 15.58092 27317 ft 364 kts 265°
2026-04-30 22:17 41.08797 15.48240 27064 ft 370 kts 257°
2026-04-30 22:17 41.07959 15.45022 26981 ft 370 kts 257°
2026-04-30 22:17 41.06276 15.38585 26813 ft 369 kts 257°
2026-04-30 22:18 41.05434 15.35377 26729 ft 369 kts 257°
2026-04-30 22:18 41.03748 15.28961 26481 ft 369 kts 257°
2026-04-30 22:19 41.02019 15.22383 24574 ft 384 kts 256°
2026-04-30 22:19 41.01139 15.19037 23882 ft 384 kts 256°
2026-04-30 22:19 40.99401 15.12364 22478 ft 381 kts 256°
2026-04-30 22:20 40.98556 15.09095 21831 ft 380 kts 256°
2026-04-30 22:20 40.96850 15.02519 20639 ft 376 kts 256°
2026-04-30 22:20 40.96002 14.99254 20080 ft 375 kts 256°
2026-04-30 22:21 40.95157 14.96000 19548 ft 373 kts 256°
2026-04-30 22:21 40.94314 14.92762 19032 ft 372 kts 256°
2026-04-30 22:21 40.93470 14.89529 18479 ft 371 kts 256°
2026-04-30 22:21 40.92707 14.86281 17860 ft 369 kts 257°
2026-04-30 22:22 40.91929 14.83080 17565 ft 360 kts 256°
2026-04-30 22:22 40.91120 14.80018 17392 ft 347 kts 255°
2026-04-30 22:22 40.90313 14.77070 17115 ft 332 kts 255°
2026-04-30 22:22 40.89539 14.74262 16860 ft 320 kts 255°
2026-04-30 22:23 40.88796 14.71534 16598 ft 312 kts 255°
2026-04-30 22:23 40.88064 14.68872 16333 ft 306 kts 252°
2026-04-30 22:23 40.87188 14.66222 16102 ft 331 kts 250°
2026-04-30 22:23 40.86181 14.63330 15851 ft 358 kts 249°
2026-04-30 22:24 40.85099 14.60325 15586 ft 365 kts 248°
2026-04-30 22:24 40.83990 14.57303 15317 ft 366 kts 248°
2026-04-30 22:24 40.82880 14.54287 15079 ft 365 kts 248°
2026-04-30 22:24 40.81777 14.51274 14835 ft 364 kts 248°
2026-04-30 22:25 40.80682 14.48266 14594 ft 363 kts 248°
2026-04-30 22:25 40.79592 14.45253 13923 ft 363 kts 248°
2026-04-30 22:25 40.78517 14.42274 13125 ft 357 kts 248°
2026-04-30 22:25 40.77470 14.39373 12335 ft 352 kts 248°
2026-04-30 22:26 40.75390 14.33602 10796 ft 345 kts 247°
2026-04-30 22:26 40.74364 14.30762 10009 ft 341 kts 247°
2026-04-30 22:26 40.73360 14.27997 9170 ft 327 kts 247°
2026-04-30 22:27 40.72393 14.25344 8388 ft 314 kts 247°
2026-04-30 22:27 40.71473 14.22824 7881 ft 296 kts 247°
2026-04-30 22:27 40.69772 14.18166 6890 ft 270 kts 249°
2026-04-30 22:28 40.68186 14.13804 5642 ft 260 kts 248°
2026-04-30 22:28 40.67450 14.11646 5144 ft 257 kts 258°
2026-04-30 22:29 40.68904 14.05983 4782 ft 210 kts 326°
2026-04-30 22:29 40.70179 14.05104 4649 ft 207 kts 345°
2026-04-30 22:30 40.75651 14.05355 4164 ft 181 kts 25°
2026-04-30 22:31 40.78152 14.08824 3784 ft 179 kts 54°
2026-04-30 22:32 40.80256 14.12828 3450 ft 175 kts 54°
2026-04-30 22:32 40.81622 14.15440 2975 ft 167 kts 55°
2026-04-30 22:33 40.83344 14.18734 2305 ft 136 kts 54°
2026-04-30 22:33 40.84411 14.20766 1909 ft 134 kts 53°
2026-04-30 22:34 40.86073 14.23768 1221 ft 133 kts 56°
2026-04-30 22:35 40.87059 14.25837 775 ft 132 kts 57°
2026-04-30 22:36 40.88834 14.29568 250 ft 67 kts 58°
2026-04-30 22:36 40.89040 14.30003 234 ft 33 kts 59°
2026-04-30 22:37 40.88930 14.30138 231 ft 9 kts 232°
2026-04-30 22:37 40.88887 14.30065 234 ft 11 kts 232°
2026-04-30 22:37 40.88792 14.29900 241 ft 12 kts 232°
2026-04-30 22:38 40.88683 14.29710 248 ft 13 kts 232°
2026-04-30 22:38 40.88552 14.29484 257 ft 18 kts 233°
2026-04-30 22:39 40.88472 14.29344 263 ft 19 kts 232°
2026-04-30 22:39 40.88235 14.28933 279 ft 9 kts 232°
2026-04-30 22:40 40.88151 14.28790 285 ft 6 kts 232°